Location: Buffign�court
(47.8126°N, 6.0176°E)
Time: 19:53:00
(UTC+00:00)

Daily predictions for brighter satellites

Satellite Brightness Start Highest point End
(mag) Time Altitude Azimuth Time Altitude Azimuth Time Altitude Azimuth
Cosmos 2278 4.4 20:07:19 10° SW 20:12:57 61° WNW 20:18:36 10° NNE
Cosmos 676 Rocket 4.2 20:08:55 10° NNW 20:14:17 80° WSW 20:19:37 10° SSE
CENTAUR R/B 2.5 20:08:52 10° SSW 20:14:46 80° SE 20:21:55 10° NE
Meteor 1-21 4.3 20:09:14 10° S 20:14:51 68° E 20:20:27 10° NNE
Cosmos 1470 2.8 20:11:00 10° N 20:15:00 90° ENE 20:18:57 10° S
Cosmos 1954 Rocket 4.2 20:09:57 10° NNW 20:15:18 76° WSW 20:20:36 10° SSE
Ariane Rocket 3.9 20:13:40 10° S 20:18:35 48° W 20:23:33 10° NNW
Cosmos 1315 Rocket 3.0 20:21:18 10° NNW 20:25:28 81° W 20:29:34 10° S
Cosmos 1980 Rocket 3.6 20:20:47 10° SW 20:26:08 43° NW 20:31:30 10° NNE
Cosmos 1674 3.7 20:23:01 10° SSE 20:26:13 28° E 20:29:27 10° NNE
USA 81 4.1 20:21:26 10° N 20:26:43 70° E 20:31:57 10° SSE
Cosmos 2278 Rocket 4.5 20:26:22 10° N 20:29:14 14° NNE 20:32:05 10° ENE
Okean 1 Rocket 3.4 20:25:09 10° NNW 20:29:29 67° W 20:33:50 10° S
Cosmos 1455 Rocket 3.6 20:28:21 10° N 20:32:39 44° ENE 20:36:54 10° SSE
Cosmos 1727 Rocket 4.1 20:28:48 10° S 20:35:04 69° E 20:41:19 10° NNE
USA 267 4.4 20:30:36 10° ENE 20:36:41 43° N 20:42:46 10° WNW
Cosmos 1605 Rocket 4.5 20:32:16 10° NNW 20:38:37 65° W 20:44:53 10° S
Meteor 2-20 Rocket 4.5 20:33:52 10° S 20:39:56 69° E 20:46:00 10° NNE
Cosmos 1726 3.1 20:38:04 10° NNW 20:41:32 43° W 20:44:59 10° SSW
Cosmos 1844 Rocket 3.1 20:36:48 10° NNW 20:42:24 55° ENE 20:47:39 12° SE
BREEZE-M DEB (TANK) 2.9 20:40:33 10° SW 20:42:52 38° SE 20:47:12 10° ENE
Cosmos 1758 3.6 20:39:50 10° NNW 20:43:48 68° W 20:47:43 10° S
Cosmos 2285 Rocket 4.2 20:38:27 10° SSW 20:44:53 80° WNW 20:51:22 10° NNE
Okean 2 4.5 20:42:30 10° SSW 20:46:26 46° WNW 20:50:24 10° N
Cosmos 1802 Rocket 4.4 20:44:14 10° N 20:50:21 52° ENE 20:55:59 12° SSE
Cosmos 292 Rocket 4.0 20:45:40 10° SSW 20:50:30 78° WNW 20:55:21 10° NNE
Cosmos 1908 3.5 20:47:21 10° N 20:51:11 55° ENE 20:54:25 14° SSE
Cosmos 1340 4.1 20:51:54 14° SE 20:54:05 21° E 20:56:59 10° NE
Lacrosse 5 rocket 2.2 20:51:28 10° S 20:54:20 22° SE 20:57:10 10° ENE
Cosmos 2263 Rocket 3.7 20:50:07 10° NW 20:55:02 31° WSW 20:59:58 10° SSW
SPOT 5 3.1 20:53:08 12° SSE 20:57:53 69° ENE 21:02:48 10° N
Cosmos 405 4.4 20:57:03 10° NNE 20:59:58 25° ENE 21:02:06 14° ESE
Cosmos 1707 3.8 20:56:23 10° SSW 21:00:08 46° WNW 21:03:55 10° N
Cosmos 1452 Rocket 3.6 20:56:54 10° SSW 21:02:11 85° WNW 21:07:31 10° NNE
In-Cosmos 22 4.3 21:02:39 10° SSW 21:07:55 73° WNW 21:13:14 10° N
Cosmos 1459 Rocket 3.9 21:03:00 10° N 21:09:05 84° E 21:14:34 13° S
Resurs 01 Rocket 3.6 21:06:13 10° SSW 21:09:45 23° W 21:13:19 10° NW
Terra 2.0 21:06:08 15° SSE 21:09:58 63° ENE 21:14:42 10° N
SPOT 1/Viking Rocket 4.4 21:05:45 10° S 21:10:41 47° W 21:15:39 10° NNW
Cosmos 1850 Rocket 4.3 21:06:06 10° NNW 21:11:23 66° WSW 21:15:54 14° S
Cosmos 1953 2.4 21:07:41 10° NNW 21:11:46 77° W 21:15:10 14° S
Lacrosse 5 3.0 21:07:56 10° WNW 21:12:23 31° SW 21:16:06 14° S
Cosmos 2333 Rocket 3.0 21:09:00 13° SSE 21:13:21 34° ESE 21:18:28 10° NE
Cosmos 1025 Rocket 3.1 21:10:01 13° S 21:13:49 61° E 21:18:08 10° NNE
CARTOSAT-1 4.0 21:10:58 12° S 21:14:56 58° W 21:19:14 10° NNW
Cosmos 1000 Rocket 4.4 21:11:16 10° S 21:17:25 84° E 21:23:36 10° N
NOSS 3-2 (C) 4.3 21:12:55 10° WSW 21:18:34 55° NW 21:25:09 10° NE
Geosat 4.4 21:15:06 14° S 21:19:16 56° WSW 21:24:14 10° NW
SL-14 R/B 3.8 21:17:35 19° SSE 21:20:12 44° E 21:24:04 10° NNE
FALCON 9 DEB 3.1 21:18:38 10° SW 21:22:00 58° SSE 21:25:22 10° ENE
Spot 2 Rocket 4.2 21:17:52 10° S 21:22:42 51° W 21:27:39 10° NNW
Cosmos 1975 Rocket 3.6 21:19:28 10° SSW 21:23:44 58° WNW 21:28:06 10° N
Cosmos 2061 Rocket 4.1 21:18:13 10° N 21:24:41 72° E 21:29:43 17° SSE
ATLAS 3B R/B 3.0 21:19:02 10° S 21:25:06 42° ESE 21:31:22 10° NE
Cosmos 1844 3.7 21:20:35 10° NNW 21:26:12 88° WSW 21:30:18 19° SSE
Cosmos 1331 Rocket 4.0 21:22:57 10° SSW 21:28:10 76° ESE 21:33:28 10° NNE
Cosmos 1461 3.1 21:24:17 10° NW 21:28:29 62° WSW 21:30:58 22° SSE
Cosmos 2219 Rocket 2.8 21:24:38 16° SSE 21:28:32 38° ESE 21:33:45 10° NE
ERS-1 Rocket 3.3 21:24:38 14° S 21:28:52 65° WSW 21:33:54 10° NNW
Cosmos 1626 2.0 21:27:13 16° S 21:30:08 89° W 21:33:51 10° N
Cosmos 1864 Rocket 4.5 21:24:52 10° N 21:31:07 76° E 21:35:46 18° SSE
Meteor 1-24 Rocket 4.2 21:30:57 19° SSE 21:34:12 39° E 21:39:16 10° NNE
Aureole 1 Rocket 4.2 21:28:53 10° NNW 21:34:33 70° WSW 21:40:17 17° S
Meteor 2-10 Rocket 4.4 21:29:54 10° N 21:34:38 36° ENE 21:37:47 18° SE
BREEZE-M DEB (TANK) 2.9 21:36:08 10° WNW 21:38:46 27° SW 21:39:08 26° SSW
SL-8 R/B 3.7 21:34:01 10° WNW 21:38:46 61° SSW 21:41:58 20° SE
Cosmos 2123 Rocket 4.0 21:34:02 14° S 21:39:33 79° E 21:45:54 10° N
BREEZE-M DEB (TANK) 2.0 21:37:58 10° SW 21:40:30 54° SSE 21:45:49 10° ENE
ATLAS CENTAUR R/B 1.6 21:39:18 10° NW 21:43:37 76° NE 21:46:25 23° SE
Cosmos 2237 Rocket 3.9 21:42:20 14° ESE 21:43:54 16° E 21:47:06 10° ENE
USA 215 3.5 21:38:28 10° ENE 21:44:45 47° SE 21:51:00 10° SSW
Cosmos 1302 Rocket 4.1 21:42:30 18° S 21:46:17 57° ESE 21:51:26 10° NNE
ARIANE 5 R/B 4.1 21:43:36 10° SSW 21:47:25 30° W 21:51:23 10° NNW
Cosmos 1867 4.3 21:42:30 10° NNW 21:47:50 47° NE 21:52:15 14° ESE
Cosmos 2233 Rocket 4.1 21:42:47 10° N 21:48:56 66° ENE 21:53:01 22° SSE
SL-16 R/B 3.8 21:43:47 10° WSW 21:48:58 35° NW 21:54:10 10° NNE
Cosmos 2360 Rocket 2.6 21:44:34 10° SW 21:50:11 66° WNW 21:55:50 10° NNE
SL-24 R/B 4.3 21:45:40 10° N 21:50:34 79° E 21:53:44 22° S
Cosmos 2322 Rocket 3.5 21:46:18 10° SW 21:51:41 42° NW 21:57:06 10° NNE
FALCON 9 DEB 4.4 21:53:44 21° E 21:53:44 21° E 21:55:14 10° ENE
Centaur D AC-29 4.1 21:38:35 10° WSW 21:55:33 20° SW 21:59:44 15° S
Cosmos 1455 3.8 21:57:53 10° NNE 22:01:04 24° ENE 22:02:38 19° ESE
Cosmos 389 Rocket 3.2 21:59:07 10° N 22:02:22 39° ENE 22:03:30 29° ESE
COSMOS 2428 2.8 22:01:02 20° S 22:04:55 59° ESE 22:10:35 10° NE
CENTAUR R/B 4.4 22:00:27 10° W 22:06:16 35° NNW 22:13:05 10° NE
H-2A R/B 3.9 22:02:17 10° N 22:06:19 59° WNW 22:09:25 16° SSW
Cosmos 2322 3.6 22:02:41 12° SSW 22:07:53 86° ESE 22:13:36 10° NNE
Cosmos 1300 3.1 22:05:02 10° NNW 22:08:48 56° W 22:10:36 27° SSW
Cosmos 1606 Rocket 3.9 22:06:02 10° N 22:10:27 54° ENE 22:12:29 29° SE
ALOS 2 3.8 22:11:49 20° ESE 22:14:05 32° ENE 22:18:00 10° N
Cosmos 2278 Rocket 2.7 22:09:10 10° NNW 22:14:43 53° ENE 22:18:27 20° SE
SJ 16-02 4.1 22:15:03 10° NE 22:15:34 10° NE 22:16:06 10° NE
Cosmos 1486 Rocket 4.0 22:12:46 10° NNW 22:18:01 76° ENE 22:20:48 28° SSE
USA 267 3.4 22:12:42 10° ESE 22:19:13 73° NNE 22:25:45 10° NW
Cosmos 1346 Rocket 2.8 22:19:17 36° SSE 22:20:46 64° E 22:24:45 10° NNE
Cosmos 1844 Rocket 4.1 22:21:16 10° NW 22:25:57 27° WSW 22:29:19 16° SSW
SL-4 R/B 4.1 22:30:03 12° E 22:30:03 12° E 22:30:26 10° E
Meteor 2-5 Rocket 4.1 22:24:44 17° SSW 22:29:01 61° WNW 22:34:36 10° N
Cosmos 1340 4.3 22:26:35 13° SW 22:29:29 30° WNW 22:32:52 10° N
Cosmos 968 Rocket 3.6 22:25:59 10° NNW 22:31:04 66° WSW 22:33:31 30° S
Cosmos 1464 Rocket 4.4 22:26:28 10° N 22:32:43 55° ENE 22:36:22 25° SE
Lacrosse 5 rocket 1.6 22:29:34 10° WSW 22:33:09 58° NNW 22:36:42 10° NE
Cosmos 1992 Rocket 4.0 22:32:38 30° S 22:35:10 63° ESE 22:40:22 10° NNE
GEOS 3 Rocket 3.8 22:36:02 30° SSE 22:38:39 61° SW 22:43:58 10° NW
Cosmos 1184 Rocket 3.7 22:38:30 32° ESE 22:38:40 33° E 22:41:38 10° NNE
Cosmos 1607 4.2 22:36:56 10° NW 22:43:23 69° NE 22:47:53 20° SE
Meteor 2-1 Rocket 4.5 22:40:38 10° N 22:46:05 59° ENE 22:48:54 28° SE
Terra 4.0 22:45:02 10° SW 22:48:09 17° W 22:51:17 10° NW
Cosmos 1703 4.0 22:49:57 34° SE 22:50:49 39° E 22:54:32 10° NNE
Cosmos 1980 3.9 22:50:46 31° S 22:53:18 57° ESE 22:58:53 10° NE
Cosmos 1441 Rocket 4.0 22:52:52 34° ESE 22:53:36 38° E 22:57:11 10° NNE
FALCON 9 DEB 2.7 22:56:14 67° SW 22:56:35 83° SSE 22:59:45 10° ENE
Cosmos 2333 Rocket 3.2 22:51:59 10° SW 22:57:29 45° NW 23:03:01 10° NNE
Cosmos 1943 Rocket 3.9 22:54:08 10° N 22:58:49 27° NE 23:03:29 10° ESE
FALCON 9 DEB 4.5 22:55:43 10° W 22:59:00 41° NNW 23:02:15 10° ENE
Cosmos 2228 4.0 22:55:30 10° NNW 22:59:37 40° W 23:01:23 27° SW
BREEZE-M DEB (TANK) 2.8 22:57:05 10° SW 23:05:17 57° SSE 23:08:11 10° E
Cosmos 2034 Rocket 4.1 22:59:57 10° N 23:06:10 68° E 23:09:25 29° SSE
Okean 1-7 Rocket 3.7 23:06:13 40° SSE 23:07:41 65° E 23:12:07 10° NNE
Cosmos 2219 Rocket 3.3 23:07:07 10° WSW 23:12:28 41° NW 23:17:50 10° NNE
SAR-Lupe-2 3.7 23:11:24 10° NNE 23:14:58 60° ESE 23:15:31 52° SE
ATLAS 3B R/B 3.4 23:09:18 10° WSW 23:15:42 52° NW 23:22:22 10° NE
Cosmos 1503 Rocket 4.2 23:11:50 10° NNW 23:17:09 61° WSW 23:19:20 34° S
FALCON 9 DEB 3.5 23:16:35 16° W 23:18:52 56° NNW 23:21:55 10° ENE
FALCON 9 DEB 3.2 23:19:50 28° W 23:21:17 64° NNW 23:24:24 10° ENE
USA 32 4.4 23:16:30 10° N 23:21:41 54° E 23:24:06 30° SE
ATLAS CENTAUR R/B 3.5 23:19:20 10° WNW 23:22:03 16° WSW 23:22:33 16° WSW
SL-16 R/B 3.1 23:20:20 27° SE 23:22:13 33° ESE 23:27:15 10° NE
Cosmos 2058 Rocket 3.4 23:19:45 10° NNW 23:24:08 56° W 23:25:34 37° SSW
Cosmos 1812 Rocket 4.2 23:22:19 10° N 23:26:31 46° ENE 23:28:14 30° SE
Cosmos 2237 Rocket 2.1 23:24:08 29° SSW 23:27:10 88° WNW 23:32:50 10° NNE
USA 215 3.6 23:21:28 10° NE 23:27:57 68° NNW 23:34:26 10° WSW
FALCON 9 DEB 3.6 23:25:34 15° W 23:27:59 52° NNW 23:31:01 10° ENE
ATLAS CENTAUR R/B 3.5 23:25:37 30° SSW 23:28:32 62° SE 23:41:36 10° NE
Cosmos 1867 4.4 23:26:21 10° NW 23:31:19 36° WSW 23:32:53 30° SSW
Tsikada Rocket 4.1 23:28:42 31° SSE 23:31:45 65° E 23:37:51 10° NNE
Thor Agena Rocket 3.6 23:29:02 10° NNE 23:34:18 67° ESE 23:36:27 35° S
GP-B 3.4 23:31:07 10° N 23:35:32 59° E 23:37:02 37° SSE
Cosmos 1455 3.5 23:33:20 10° NNW 23:36:38 27° W 23:37:30 25° WSW
Cosmos 2369 Rocket 3.9 23:32:30 10° NNW 23:37:29 30° NE 23:42:27 10° ESE
Meteor 1-21 Rocket 4.4 23:39:35 29° SSW 23:42:29 64° WNW 23:48:10 10° N
Meteor 1-4 Rocket 2.3 23:40:53 10° NNW 23:44:24 79° W 23:44:51 63° SSW
Cosmos 724 4.5 23:39:21 10° NW 23:45:35 78° NE 23:50:00 20° SE
COSMOS 2428 4.4 23:44:37 10° WSW 23:49:35 29° NW 23:54:35 10° NNE
ALOS 2 3.8 23:49:12 25° SW 23:50:25 29° W 23:54:16 10° NW
SJ 16-02 1.6 23:50:42 10° NNW 23:55:05 65° ENE 23:57:01 31° SE
